This is the latest recevied weather packets stored in our database for station/object IZ8NVY-11. If no packets are shown the sender has not sent any weather packets the latest 10 day(s).
| Time | Temp. | Humidity | Pressure | Rain* | Wind** | Luminosity | Snow |
|---|---|---|---|---|---|---|---|
| 1777714417 | 14.44° C | 39% | 887.5 hPa | - | - | - | - |
| 1777710817 | 12.78° C | 44% | 887.7 hPa | - | - | - | - |
| 1777707216 | 13.33° C | 47% | 887.6 hPa | - | - | - | - |
| 1777703615 | 12.22° C | 55% | 887.2 hPa | - | - | - | - |
| 1777700014 | 8.33° C | 61% | 886.9 hPa | - | - | - | - |
| 1777696414 | 7.78° C | 60% | 886.4 hPa | - | - | - | - |
| 1777692813 | 7.78° C | 61% | 886.3 hPa | - | - | - | - |
| 1777689212 | 7.78° C | 59% | 886.2 hPa | - | - | - | - |
| 1777685611 | 7.78° C | 56% | 886.5 hPa | - | - | - | - |
| 1777682011 | 8.33° C | 54% | 886.5 hPa | - | - | - | - |
| 1777678410 | 8.33° C | 49% | 886.6 hPa | - | - | - | - |
| 1777674809 | 8.33° C | 43% | 886.5 hPa | - | - | - | - |
| 1777671211 | 7.78° C | 43% | 887 hPa | - | - | - | - |
| 1777667607 | 7.78° C | 41% | 886.7 hPa | - | - | - | - |
| 1777664007 | 7.78° C | 43% | 886 hPa | - | - | - | - |
| 1777660406 | 7.78° C | 41% | 885.4 hPa | - | - | - | - |
| 1777656805 | 10° C | 35% | 884.9 hPa | - | - | - | - |
| 1777653209 | 12.22° C | 35% | 884.5 hPa | - | - | - | - |
| 1777649604 | 13.33° C | 34% | 884.7 hPa | - | - | - | - |
| 1777646003 | 13.89° C | 35% | 885 hPa | - | - | - | - |
| 1777642402 | 14.44° C | 37% | 885.2 hPa | - | - | - | - |
| 1777638801 | 13.89° C | 39% | 885.7 hPa | - | - | - | - |
| 1777635201 | 13.33° C | 41% | 885.9 hPa | - | - | - | - |
| 1777631600 | 12.78° C | 46% | 885 hPa | - | - | - | - |
| 1777627999 | 10.56° C | 47% | 884.9 hPa | - | - | - | - |
* Rain since midnight (hover to see other rain measurements)
** Current wind speed in m/s (hover to see current wind gust speed)